THOR ABLESTAR DEB, 715

Orbit data source: Space-Track

THOR ABLESTAR DEB, 715 is space debris in LEO originally from a launch on Thu, 05 Dec 1963 UTC launched from the Air Force Western Test Range (AFWTR). Debris objects in space refer to the collection of defunct objects orbiting the Earth. Examples of debris include non-operational satellites, rocket bodies, and fragments generated from explosions, collisions, or faulty payload assembly.

Loading next visibility...
Identifier
715, 1963-049E
Orbit
LEO
Country
Flag of USUS
Related business
Manufacturer
Unknown
Mission
Spacecraft
Bus & Motor
Unknown
Mass
Unknown
Launch date (UTC)
1963-12-05 (62 years ago)
Launch vehicle
Unknown
Launch site
Air Force Western Test Range (AFWTR)
Object type
Payload
Rocket body
Debris
Shape & HBR
Unknown
Radar Cross Section
Small (<0.1 m²)

Expand to show TLE details & history
Last TLE update: 21 hours ago

TLE from 21 hours ago
0 THOR ABLESTAR DEB
1 00715U 63049E   25261.01882748  .00000738  00000-0  76025-3 0  9990
2 00715  89.9047  80.1686 0027965 262.2556 221.8031 13.75094599 65974
Epoch: 2025-09-18T00:27Z
TLE epoch observation values (Epoch: 2025-09-18T00:27:06.694Z)
Latitude
56.24847°
Longitude
-103.93761°
Altitude
1,006.18 km
Speed
7.346 km/s
True Right ascension
17h 20m 06s
True Declination
56° 05' 41"
Sunlit
Object was in daylight at epoch
Visualization orbit readout
Latitude
Unknown
Longitude
Unknown
Altitude
Unknown
Speed
Unknown
Apparent Right ascension
Unknown
Apparent Declination
Unknown
Sunlit
N/A
Visualization observer readout
Local Sidereal Time
13:53:37
Azimuth
Unknown
Elevation
Unknown
Doppler factor
Unknown
Orbital elements
Apogee altitude
998.923 km
Perigee altitude
957.778 km
Semi-major axis
7,356.488 km
Eccentricity
0.0028
Inclination
89.9047°
RAAN
80.1686°
Arg. of periapsis
262.2556°
True anomaly
221.59005°
Mean anomaly
221.8031°
Eccentric anomaly
221.69652°
Mean motion
3.43983 °/min
Orbital period
104.66 mins
BSTAR
0.00076025
Loading maneuver chart data...
Computing Atmospheric mass density...
Loading historical data...
Loading historical data...
Loading historical data...
Loading historical data...
Loading historical data...
Loading historical data...
Loading historical data...

Documentation

Showing up to 5 results
|